P/2002 T5 ( LINEAR )

Japanese version
Home page
Updated on January 21, 2006

---------------------------------------------------------------------

* Profile

Discovery Date October 5, 2002
Magnitude 18.4 mag
Discoverer Lincoln Laboratory Near-Earth Asteroid Research project

* Orbital Elements

The following orbital elements are taken from MPC 53465:

Epoch 2003 June 10.0 TT = JDT 2452800.5
T 2003 June 27.8664 TT                                  MPC
q   3.934087             (2000.0)            P               Q
n   0.0533952      Peri.  326.7606      -0.0666257      -0.9007838
a   6.984491       Node   123.3313      +0.9902337      -0.1124826
e   0.436740       Incl.   30.9047      +0.1224676      +0.4194475
P  18.5
From 965 observations 2002 Oct. 5-2005 Jan. 16, mean residual 0".6.

* Finding Charts

* Magnitudes Graph

        m1 = 8.0 + 5 log d + 10.0 log r

---------------------------------------------------------------------

The orbital elements are published at the MPC Ephemerides and Orbital Elements.
The charts are made with StellaNavigator Ver.2.0 for Windows (AstroArts / ASCII).
The magnitudes graphs are made with Comet for Windows.

---------------------------------------------------------------------

Copyright(C) Seiichi Yoshida (comet@aerith.net). All rights reserved.